Location: Branson Observatory
(36.6451°N, 93.2213°W)
Time: 17:20:22
(UTC-05:00)

Tiangong 2 - Visible Passes

Search period start: 18 August 2018 00:00
Search period end: 28 August 2018 00:00
Orbit: 384 x 395 km, 42.8° (Epoch: 18 August)

Date Brightness Start Highest point End Pass type
(mag) Time Alt. Az. Time Alt. Az. Time Alt. Az.
18 Aug 4.1 04:02:08 13° E 04:02:08 13° E 04:02:39 10° E visible
18 Aug 1.7 05:34:27 18° W 05:36:36 50° NNW 05:39:45 10° ENE visible
19 Aug 1.6 04:39:15 58° NE 04:39:15 58° NE 04:41:55 10° ENE visible
20 Aug 2.4 05:16:20 22° WNW 05:17:49 34° NNW 05:20:48 10° NE visible
21 Aug 3.1 04:21:05 29° NE 04:21:05 29° NE 04:22:57 10° ENE visible
21 Aug 3.0 05:54:23 10° WNW 05:57:08 26° N 05:59:53 10° ENE visible
22 Aug 2.8 04:58:10 24° NW 04:59:04 27° N 05:01:52 10° NE visible
23 Aug 4.1 04:02:57 17° NE 04:02:57 17° NE 04:03:57 10° NE visible
23 Aug 3.0 05:35:36 10° NW 05:38:23 27° N 05:41:11 10° ENE visible
24 Aug 2.9 04:40:07 25° N 04:40:18 25° N 04:43:03 10° ENE visible
25 Aug 2.7 05:17:21 15° NW 05:19:35 32° NNE 05:22:31 10° ENE visible
26 Aug 3.5 04:22:21 24° NE 04:22:21 24° NE 04:24:19 10° ENE visible
26 Aug 1.3 05:55:30 10° WNW 05:58:41 72° NNE 06:01:53 10° ESE visible
27 Aug 2.0 04:59:51 35° NNW 05:00:43 45° NNE 05:03:48 10° E visible
